DLH6CN EDDF-EDDN

Flight info

Callsign DLH6CN
Flight time 0h 35m
Altitude 25000
Route CINDY8S/18 CINDY Z74 HAREM T104 ELMOX DCT LETKU LETKU1V
Aircraft A319/M-SDE3FGHIRWY/LB1

Departure

Time 2026-05-04 20:35
Airport Frankfurt Main Airport (EDDF)

Arrival

Time 2026-05-04 21:10
Airport Nuremberg Airport (EDDN)
Time Latitude Longitude Altitude Speed Heading
2026-05-04 19:35 50.04460 8.56425 355 ft 0 kts 155°
2026-05-04 20:23 50.04468 8.56420 346 ft 4 kts 154°
2026-05-04 20:23 50.04492 8.56400 351 ft 4 kts 154°
2026-05-04 20:23 50.04514 8.56389 353 ft 4 kts 207°
2026-05-04 20:23 50.04518 8.56393 352 ft 0 kts 249°
2026-05-04 20:26 50.04518 8.56391 346 ft 1 kts 249°
2026-05-04 20:26 50.04503 8.56328 347 ft 11 kts 250°
2026-05-04 20:27 50.04467 8.56179 352 ft 16 kts 249°
2026-05-04 20:27 50.04428 8.56007 350 ft 17 kts 251°
2026-05-04 20:27 50.04357 8.55925 346 ft 14 kts 175°
2026-05-04 20:27 50.04309 8.55949 346 ft 3 kts 159°
2026-05-04 20:28 50.04279 8.55964 349 ft 7 kts 173°
2026-05-04 20:28 50.04238 8.55928 353 ft 7 kts 236°
2026-05-04 20:28 50.04211 8.55822 351 ft 15 kts 249°
2026-05-04 20:28 50.04169 8.55647 351 ft 19 kts 249°
2026-05-04 20:29 50.04117 8.55428 349 ft 22 kts 249°
2026-05-04 20:29 50.04066 8.55213 352 ft 20 kts 250°
2026-05-04 20:29 50.04016 8.55005 349 ft 20 kts 250°
2026-05-04 20:29 50.03968 8.54806 347 ft 20 kts 249°
2026-05-04 20:30 50.03924 8.54620 347 ft 15 kts 249°
2026-05-04 20:30 50.03887 8.54468 349 ft 10 kts 250°
2026-05-04 20:30 50.03859 8.54368 352 ft 11 kts 238°
2026-05-04 20:30 50.03814 8.54267 346 ft 12 kts 239°
2026-05-04 20:31 50.03776 8.54123 348 ft 17 kts 250°
2026-05-04 20:31 50.03732 8.53935 350 ft 19 kts 250°
2026-05-04 20:31 50.03684 8.53736 349 ft 20 kts 249°
2026-05-04 20:31 50.03632 8.53532 348 ft 21 kts 249°
2026-05-04 20:32 50.03580 8.53314 346 ft 22 kts 250°
2026-05-04 20:32 50.03526 8.53088 352 ft 23 kts 249°
2026-05-04 20:32 50.03468 8.52855 349 ft 23 kts 248°
2026-05-04 20:32 50.03431 8.52719 349 ft 0 kts 248°
2026-05-04 20:33 50.03430 8.52715 348 ft 2 kts 248°
2026-05-04 20:33 50.03416 8.52668 350 ft 8 kts 243°
2026-05-04 20:34 50.03351 8.52595 346 ft 15 kts 188°
2026-05-04 20:34 50.03299 8.52594 349 ft 0 kts 180°
2026-05-04 20:34 50.03254 8.52594 351 ft 35 kts 180°
2026-05-04 20:34 50.02717 8.52598 346 ft 116 kts 179°
2026-05-04 20:35 50.01705 8.52596 474 ft 163 kts 181°
2026-05-04 20:35 50.00555 8.52593 1158 ft 168 kts 180°
2026-05-04 20:35 49.99370 8.52603 1869 ft 176 kts 180°
2026-05-04 20:35 49.98069 8.52628 2326 ft 199 kts 177°
2026-05-04 20:36 49.96684 8.53364 2757 ft 226 kts 143°
2026-05-04 20:36 49.95696 8.55288 3570 ft 236 kts 118°
2026-05-04 20:36 49.94927 8.57549 3911 ft 236 kts 119°
2026-05-04 20:36 49.94246 8.59817 4011 ft 235 kts 107°
2026-05-04 20:37 49.94016 8.62464 4362 ft 261 kts 94°
2026-05-04 20:37 49.93905 8.65336 4885 ft 270 kts 95°
2026-05-04 20:37 49.93479 8.68157 5002 ft 269 kts 114°
2026-05-04 20:37 49.92501 8.70606 5029 ft 267 kts 133°
2026-05-04 20:38 49.91100 8.72471 5009 ft 265 kts 146°
2026-05-04 20:38 49.89595 8.74123 5008 ft 265 kts 144°
2026-05-04 20:38 49.88284 8.76139 5012 ft 267 kts 129°
2026-05-04 20:38 49.87313 8.78593 5014 ft 268 kts 120°
2026-05-04 20:39 49.86424 8.81093 5014 ft 268 kts 120°
2026-05-04 20:39 49.85506 8.83638 5242 ft 278 kts 121°
2026-05-04 20:39 49.84560 8.86241 6434 ft 275 kts 122°
2026-05-04 20:39 49.83619 8.88830 7558 ft 277 kts 122°
2026-05-04 20:40 49.82669 8.91442 8606 ft 281 kts 122°
2026-05-04 20:40 49.81702 8.94093 9644 ft 285 kts 123°
2026-05-04 20:40 49.80712 8.96799 10426 ft 298 kts 123°
2026-05-04 20:40 49.79651 8.99691 10924 ft 318 kts 122°
2026-05-04 20:41 49.78547 9.02710 11739 ft 325 kts 122°
2026-05-04 20:41 49.77451 9.05717 12613 ft 331 kts 122°
2026-05-04 20:41 49.76379 9.08894 13506 ft 337 kts 115°
2026-05-04 20:41 49.75680 9.12374 14306 ft 344 kts 106°
2026-05-04 20:42 49.75068 9.15984 15076 ft 347 kts 111°
2026-05-04 20:42 49.74075 9.19374 15841 ft 348 kts 123°
2026-05-04 20:42 49.72646 9.22394 16618 ft 349 kts 134°
2026-05-04 20:42 49.71033 9.25216 17406 ft 352 kts 134°
2026-05-04 20:43 49.69403 9.28072 18169 ft 356 kts 134°
2026-05-04 20:43 49.67757 9.30967 18834 ft 361 kts 134°
2026-05-04 20:43 49.66118 9.33859 19477 ft 365 kts 134°
2026-05-04 20:43 49.64439 9.36825 20125 ft 369 kts 134°
2026-05-04 20:44 49.62742 9.39819 20780 ft 373 kts 135°
2026-05-04 20:44 49.61024 9.42844 21436 ft 377 kts 135°
2026-05-04 20:44 49.59294 9.45898 22091 ft 380 kts 135°
2026-05-04 20:44 49.57541 9.48987 22689 ft 385 kts 134°
2026-05-04 20:45 49.55767 9.52107 22940 ft 388 kts 134°
2026-05-04 20:45 49.54015 9.55188 22992 ft 374 kts 134°
2026-05-04 20:45 49.52364 9.58095 22989 ft 358 kts 135°
2026-05-04 20:45 49.50742 9.60941 22991 ft 352 kts 135°
2026-05-04 20:46 49.49130 9.63758 22994 ft 350 kts 135°
2026-05-04 20:46 49.47522 9.66559 22996 ft 349 kts 135°
2026-05-04 20:46 49.45913 9.69362 23001 ft 349 kts 135°
2026-05-04 20:46 49.44300 9.72157 22999 ft 349 kts 135°
2026-05-04 20:47 49.42689 9.74945 23000 ft 349 kts 135°
2026-05-04 20:47 49.41079 9.77738 23001 ft 349 kts 135°
2026-05-04 20:47 49.39636 9.80694 23003 ft 353 kts 124°
2026-05-04 20:47 49.38616 9.84139 23003 ft 358 kts 111°
2026-05-04 20:48 49.38110 9.87891 22988 ft 361 kts 98°
2026-05-04 20:48 49.37936 9.91741 22996 ft 361 kts 97°
2026-05-04 20:48 49.37761 9.95597 23008 ft 369 kts 97°
2026-05-04 20:48 49.37568 9.99607 22779 ft 381 kts 97°
2026-05-04 20:49 49.37370 10.03673 22118 ft 383 kts 97°
2026-05-04 20:49 49.37173 10.07741 21575 ft 381 kts 97°
2026-05-04 20:49 49.36978 10.11782 21074 ft 378 kts 97°
2026-05-04 20:49 49.36785 10.15731 20474 ft 374 kts 97°
2026-05-04 20:50 49.36589 10.19689 19799 ft 370 kts 97°
2026-05-04 20:50 49.36393 10.23599 19057 ft 366 kts 97°
2026-05-04 20:50 49.36199 10.27469 18351 ft 362 kts 97°
2026-05-04 20:50 49.36003 10.31297 17510 ft 359 kts 97°
2026-05-04 20:51 49.35807 10.35088 16748 ft 355 kts 97°
2026-05-04 20:51 49.35616 10.38840 16025 ft 350 kts 97°
2026-05-04 20:51 49.35430 10.42491 15353 ft 346 kts 97°
2026-05-04 20:51 49.35243 10.46139 14800 ft 339 kts 97°
2026-05-04 20:52 49.35057 10.49713 14133 ft 335 kts 97°
2026-05-04 20:52 49.35093 10.53282 13401 ft 336 kts 81°
2026-05-04 20:52 49.35892 10.56627 12753 ft 334 kts 59°
2026-05-04 20:52 49.37329 10.59326 12336 ft 323 kts 46°
2026-05-04 20:53 49.38889 10.61770 11730 ft 319 kts 46°
2026-05-04 20:53 49.40438 10.64177 11122 ft 316 kts 46°
2026-05-04 20:53 49.41911 10.66598 10500 ft 312 kts 55°
2026-05-04 20:53 49.42877 10.69524 9899 ft 306 kts 76°
2026-05-04 20:54 49.43139 10.72703 9244 ft 298 kts 96°
2026-05-04 20:54 49.42877 10.75820 8580 ft 292 kts 101°
2026-05-04 20:54 49.42577 10.78895 7921 ft 289 kts 101°
2026-05-04 20:54 49.42283 10.81933 7311 ft 286 kts 101°
2026-05-04 20:55 49.41993 10.84948 6823 ft 285 kts 100°
2026-05-04 20:55 49.41704 10.87933 6614 ft 278 kts 100°
2026-05-04 20:55 49.41418 10.90886 6399 ft 279 kts 100°
2026-05-04 20:55 49.41135 10.93790 6196 ft 278 kts 100°
2026-05-04 20:56 49.40852 10.96720 6044 ft 277 kts 100°
2026-05-04 20:56 49.40568 10.99643 5891 ft 276 kts 100°
2026-05-04 20:56 49.40283 11.02551 5737 ft 275 kts 100°
2026-05-04 20:56 49.39996 11.05450 5590 ft 274 kts 100°
2026-05-04 20:57 49.39712 11.08340 5436 ft 273 kts 99°
2026-05-04 20:57 49.39428 11.11210 5312 ft 272 kts 99°
2026-05-04 20:57 49.39144 11.14073 5224 ft 271 kts 99°
2026-05-04 20:57 49.38861 11.16930 5203 ft 271 kts 99°
2026-05-04 20:58 49.38582 11.19746 5054 ft 270 kts 99°
2026-05-04 20:58 49.38298 11.22583 4955 ft 268 kts 98°
2026-05-04 20:58 49.38019 11.25402 4937 ft 267 kts 98°
2026-05-04 20:58 49.37738 11.28219 4936 ft 267 kts 99°
2026-05-04 20:59 49.37454 11.31035 4940 ft 267 kts 99°
2026-05-04 20:59 49.37170 11.33843 4940 ft 267 kts 99°
2026-05-04 20:59 49.36883 11.36655 4965 ft 267 kts 99°
2026-05-04 20:59 49.36596 11.39466 4971 ft 267 kts 99°
2026-05-04 21:00 49.36313 11.42244 4972 ft 267 kts 99°
2026-05-04 21:00 49.36025 11.45058 4972 ft 267 kts 99°
2026-05-04 21:00 49.35739 11.47871 4972 ft 267 kts 99°
2026-05-04 21:00 49.35453 11.50684 4973 ft 267 kts 99°
2026-05-04 21:01 49.35166 11.53492 4972 ft 265 kts 99°
2026-05-04 21:01 49.35007 11.56196 4971 ft 245 kts 85°
2026-05-04 21:01 49.35509 11.58616 4975 ft 238 kts 59°
2026-05-04 21:01 49.36626 11.60453 4975 ft 238 kts 34°
2026-05-04 21:02 49.38212 11.61406 4974 ft 253 kts 11°
2026-05-04 21:02 49.39899 11.61820 4975 ft 244 kts
2026-05-04 21:02 49.41575 11.62198 4974 ft 243 kts
2026-05-04 21:02 49.43216 11.61740 4976 ft 244 kts 332°
2026-05-04 21:03 49.44433 11.59976 4884 ft 243 kts 298°
2026-05-04 21:03 49.44889 11.57500 4703 ft 242 kts 277°
2026-05-04 21:03 49.45143 11.54936 4534 ft 243 kts 278°
2026-05-04 21:03 49.45398 11.52369 4365 ft 242 kts 278°
2026-05-04 21:04 49.45644 11.49904 4260 ft 230 kts 278°
2026-05-04 21:04 49.45883 11.47533 4173 ft 220 kts 278°
2026-05-04 21:04 49.46113 11.45263 4076 ft 210 kts 279°
2026-05-04 21:04 49.46332 11.43114 4013 ft 196 kts 279°
2026-05-04 21:05 49.46538 11.41087 3968 ft 188 kts 279°
2026-05-04 21:05 49.46740 11.39093 3970 ft 187 kts 279°
2026-05-04 21:05 49.46941 11.37119 3969 ft 187 kts 279°
2026-05-04 21:05 49.47142 11.35148 3967 ft 186 kts 279°
2026-05-04 21:06 49.47336 11.33241 3972 ft 178 kts 279°
2026-05-04 21:06 49.47524 11.31366 3911 ft 177 kts 279°
2026-05-04 21:06 49.47707 11.29517 3622 ft 173 kts 280°
2026-05-04 21:06 49.47886 11.27718 3389 ft 171 kts 280°
2026-05-04 21:07 49.48061 11.25969 3169 ft 158 kts 281°
2026-05-04 21:07 49.48224 11.24339 2983 ft 151 kts 281°
2026-05-04 21:07 49.48381 11.22775 2793 ft 147 kts 281°
2026-05-04 21:07 49.48528 11.21240 2596 ft 140 kts 281°
2026-05-04 21:08 49.48669 11.19826 2403 ft 133 kts 283°
2026-05-04 21:08 49.48812 11.18420 2272 ft 133 kts 283°
2026-05-04 21:08 49.48947 11.17004 2124 ft 134 kts 282°
2026-05-04 21:08 49.49085 11.15590 1903 ft 133 kts 281°
2026-05-04 21:09 49.49226 11.14227 1710 ft 127 kts 281°
2026-05-04 21:09 49.49366 11.12882 1548 ft 126 kts 279°
2026-05-04 21:09 49.49504 11.11550 1367 ft 126 kts 279°
2026-05-04 21:09 49.49629 11.10255 1187 ft 120 kts 279°
2026-05-04 21:10 49.49754 11.08975 1056 ft 121 kts 279°
2026-05-04 21:10 49.49861 11.07894 1034 ft 71 kts 278°
2026-05-04 21:10 49.49921 11.07289 1026 ft 49 kts 279°
2026-05-04 21:10 49.49925 11.07018 1021 ft 4 kts 226°
2026-05-04 21:11 49.49893 11.07012 1021 ft 6 kts 179°
2026-05-04 21:11 49.49871 11.07020 1021 ft 0 kts 161°
2026-05-04 21:12 49.49870 11.07020 1021 ft 1 kts 161°
2026-05-04 21:12 49.49845 11.07034 1021 ft 8 kts 159°
2026-05-04 21:12 49.49788 11.07069 1022 ft 9 kts 158°
2026-05-04 21:13 49.49746 11.07128 1019 ft 8 kts 111°
2026-05-04 21:13 49.49737 11.07197 1026 ft 6 kts 101°
2026-05-04 21:13 49.49705 11.07237 1026 ft 8 kts 175°
2026-05-04 21:13 49.49624 11.07217 1027 ft 16 kts 190°
2026-05-04 21:14 49.49519 11.07195 1024 ft 10 kts 183°
2026-05-04 21:14 49.49536 11.07279 1027 ft 19 kts 20°
2026-05-04 21:14 49.49624 11.07342 1026 ft 11 kts 66°
2026-05-04 21:14 49.49617 11.07438 1028 ft 7 kts 101°
2026-05-04 21:15 49.49614 11.07469 1027 ft 0 kts 99°
2026-05-04 21:15 49.49614 11.07471 1027 ft 1 kts 99°
2026-05-04 21:15 49.49610 11.07510 1028 ft 7 kts 96°
2026-05-04 21:15 49.49603 11.07598 1029 ft 8 kts 97°
2026-05-04 21:16 49.49600 11.07630 1029 ft 0 kts 98°
2026-05-04 21:16 49.49598 11.07654 1030 ft 3 kts 99°
2026-05-04 21:16 49.49595 11.07679 1030 ft 2 kts 98°
2026-05-04 21:16 49.49577 11.07731 1029 ft 8 kts 152°
2026-05-04 21:17 49.49529 11.07725 1025 ft 2 kts 188°
2026-05-04 21:17 49.49526 11.07725 1025 ft 1 kts 188°
2026-05-04 21:17 49.49521 11.07724 1026 ft 1 kts 187°